This is the latest recevied weather packets stored in our database for station/object DB0ADS-6. If no packets are shown the sender has not sent any weather packets the latest 10 day(s).
| Time | Temp. | Humidity | Pressure | Rain* | Wind** | Luminosity | Snow |
|---|---|---|---|---|---|---|---|
| 1778091354 | 13.33° C | 76% | 1003.9 hPa | 0 mm | - | - | - |
| 1778091052 | 13.33° C | 76% | 1003.9 hPa | 0 mm | - | - | - |
| 1778090750 | 13.33° C | 74% | 1003.7 hPa | 0 mm | - | - | - |
| 1778090449 | 13.33° C | 74% | 1003.7 hPa | 0 mm | - | - | - |
| 1778090167 | 13.89° C | 75% | 1003.7 hPa | 0 mm | - | - | - |
| 1778089845 | 13.89° C | 75% | 1003.6 hPa | 0 mm | - | - | - |
| 1778089544 | 13.89° C | 74% | 1003.6 hPa | 0 mm | - | - | - |
| 1778089242 | 13.89° C | 77% | 1003.6 hPa | 0 mm | - | - | - |
| 1778088940 | 13.89° C | 78% | 1003.6 hPa | 0 mm | - | - | - |
| 1778088638 | 13.89° C | 77% | 1003.5 hPa | 0 mm | - | - | - |
| 1778088337 | 13.89° C | 78% | 1003.5 hPa | 0 mm | - | - | - |
| 1778088035 | 13.89° C | 77% | 1003.4 hPa | 0 mm | - | - | - |
| 1778087737 | 13.89° C | 79% | 1003.4 hPa | 0 mm | - | - | - |
| 1778087432 | 13.89° C | 80% | 1003.4 hPa | 0 mm | - | - | - |
| 1778087130 | 13.89° C | 79% | 1003.4 hPa | 0 mm | - | - | - |
| 1778086828 | 13.89° C | 80% | 1003.2 hPa | 0 mm | - | - | - |
| 1778086527 | 13.89° C | 81% | 1003.3 hPa | 0 mm | - | - | - |
| 1778086225 | 13.89° C | 79% | 1003.2 hPa | 0 mm | - | - | - |
| 1778085923 | 14.44° C | 78% | 1003.2 hPa | 0 mm | - | - | - |
| 1778085621 | 14.44° C | 77% | 1003.3 hPa | 0 mm | - | - | - |
| 1778085320 | 14.44° C | 77% | 1003.2 hPa | 0 mm | - | - | - |
| 1778085018 | 14.44° C | 78% | 1003.2 hPa | 0 mm | - | - | - |
| 1778084717 | 14.44° C | 76% | 1003.1 hPa | 0 mm | - | - | - |
| 1778084475 | 14.44° C | 76% | 1003.2 hPa | 0 mm | - | - | - |
| 1778084173 | 14.44° C | 77% | 1003.1 hPa | 0.25 mm | - | - | - |
* Rain latest hour (hover to see other rain measurements)
** Current wind speed in m/s (hover to see current wind gust speed)